Location: Dannhausen
(51.8650°N, 10.1026°E)
Time: 05:27:25
(UTC+00:00)

Sich 1 - Pass Details

Date: 09 April 2020
Orbit: 593 x 626 km, 82.5° (Epoch: 01 June)

Event Time Altitude Azimuth Distance (km) Brightness Sun altitude
Rises 22:09:39 0° 350° (N) 2,928 7.7 -28.2°
Reaches altitude 10° 22:11:55 10° 353° (N) 2,015 6.6 -28.3°
Enters shadow 22:15:09 46° 8° (N) 847 4.0 -28.5°
